Location: Brno
(49.2000°N, 16.6330°E)
Time: 01:16:25
(UTC+02:00)

Transit 4A - Pass Details

Date: 02 August 2021
Orbit: 870 x 974 km, 66.8° (Epoch: 26 September)

Event Time Altitude Azimuth Distance (km) Brightness Sun altitude
Rises 02:27:24 0° 251° (WSW) 3,478 - -20.3°
Reaches altitude 10° 02:30:12 10° 261° (W) 2,532 - -20.1°
Exits shadow 02:30:38 12° 264° (W) 2,394 9.8 -20.1°
Maximum altitude 02:35:20 31° 323° (NW) 1,490 9.2 -19.8°
Drops below altitude 10° 02:40:28 10° 25° (NNE) 2,528 11.4 -19.4°
Sets 02:43:16 0° 36° (NE) 3,472 12.5 -19.2°
